• în România
  • Lista ţărilor
  • Pe 7 zile
  • Temperatura apei
  • Hartă satelitară
  • Meteo pe hartă
  • Widget-uri
  • user-avatar
    Intrare

    Meteo pe oră la San Fernando de Apure

    Astăzi, 23 Mai, Miercuri

    Timp Temperatura Precipitaţii Vânt Presiune Umiditate
    00:00 +28°C° 2 mm 1 m/s 754 mmHg 83%
    01:00 +27°C° 2 mm 1 m/s 754 mmHg 84%
    02:00 +27°C° 2 mm 1 m/s 755 mmHg 85%
    03:00 +27°C° 0,9 mm 1 m/s 755 mmHg 86%
    04:00 +27°C° 0,9 mm 1 m/s 755 mmHg 87%
    05:00 +26°C° 0,9 mm 1 m/s 755 mmHg 88%
    06:00 +27°C° 0,1 mm 1 m/s 755 mmHg 87%
    07:00 +27°C° 0,1 mm 1 m/s 756 mmHg 86%
    08:00 +27°C° 0,1 mm 1 m/s 756 mmHg 86%
    09:00 +29°C° 0,1 mm 2 m/s 756 mmHg 80%
    10:00 +30°C° 0,1 mm 2 m/s 756 mmHg 75%
    11:00 +31°C° 0,1 mm 2 m/s 757 mmHg 70%
    12:00 +32°C° 0,1 mm 2 m/s 756 mmHg 66%
    13:00 +32°C° 0,1 mm 2 m/s 755 mmHg 63%
    14:00 +34°C° 0,1 mm 2 m/s 755 mmHg 59%
    15:00 +33°C° 0,7 mm 1 m/s 754 mmHg 61%
    16:00 +33°C° 0,7 mm 1 m/s 754 mmHg 63%
    17:00 +33°C° 0,7 mm 1 m/s 753 mmHg 64%
    18:00 +31°C° 0,6 mm 1 m/s 754 mmHg 70%
    19:00 +30°C° 0,6 mm 1 m/s 754 mmHg 75%
    20:00 +28°C° 0,6 mm 1 m/s 754 mmHg 81%
    21:00 +28°C° 0 mm 1 m/s 755 mmHg 84%
    22:00 +27°C° 0 mm 1 m/s 755 mmHg 87%
    23:00 +27°C° 0 mm 1 m/s 756 mmHg 91%

    Mâine, 24 Mai, Joi

    Timp Temperatura Precipitaţii Vânt Presiune Umiditate
    00:00 +27°C° 1,2 mm 1 m/s 755 mmHg 92%
    01:00 +26°C° 1,2 mm 1 m/s 755 mmHg 93%
    02:00 +26°C° 1,2 mm 1 m/s 755 mmHg 95%
    03:00 +26°C° 2,6 mm 1 m/s 755 mmHg 94%
    04:00 +26°C° 2,6 mm 1 m/s 755 mmHg 93%
    05:00 +26°C° 2,6 mm 1 m/s 755 mmHg 92%
    06:00 +26°C° 2 mm 1 m/s 755 mmHg 92%
    07:00 +27°C° 2 mm 1 m/s 756 mmHg 91%
    08:00 +27°C° 2 mm 1 m/s 756 mmHg 90%
    09:00 +28°C° 1,1 mm 1 m/s 756 mmHg 86%
    10:00 +29°C° 1,1 mm 1 m/s 757 mmHg 81%
    11:00 +31°C° 1,1 mm 1 m/s 757 mmHg 76%
    12:00 +32°C° 0,3 mm 1 m/s 756 mmHg 71%
    13:00 +33°C° 0,3 mm 1 m/s 755 mmHg 67%
    14:00 +34°C° 0,3 mm 1 m/s 754 mmHg 62%
    15:00 +33°C° 0,5 mm 1 m/s 754 mmHg 64%
    16:00 +33°C° 0,5 mm 1 m/s 753 mmHg 66%
    17:00 +33°C° 0,5 mm 1 m/s 752 mmHg 68%
    18:00 +31°C° 1,6 mm 1 m/s 753 mmHg 75%
    19:00 +29°C° 1,6 mm 1 m/s 753 mmHg 81%
    20:00 +28°C° 1,6 mm 2 m/s 754 mmHg 88%
    21:00 +28°C° 0,6 mm 2 m/s 754 mmHg 89%
    22:00 +27°C° 0,6 mm 2 m/s 755 mmHg 91%
    23:00 +27°C° 0,6 mm 2 m/s 755 mmHg 92%

    Poimâine, 25 Mai, Vineri

    Timp Temperatura Precipitaţii Vânt Presiune Umiditate
    00:00 +27°C° 1 mm 1 m/s 755 mmHg 92%
    01:00 +27°C° 1 mm 1 m/s 755 mmHg 93%
    02:00 +26°C° 1 mm 1 m/s 754 mmHg 93%
    03:00 +26°C° 1,9 mm 1 m/s 754 mmHg 93%
    04:00 +26°C° 1,9 mm 1 m/s 754 mmHg 93%
    05:00 +26°C° 1,9 mm 1 m/s 754 mmHg 93%
    06:00 +26°C° 2,1 mm 1 m/s 755 mmHg 93%
    07:00 +27°C° 2,1 mm 1 m/s 755 mmHg 92%
    08:00 +27°C° 2,1 mm 1 m/s 756 mmHg 91%
    09:00 +27°C° 1,4 mm 1 m/s 756 mmHg 90%
    10:00 +28°C° 1,4 mm 2 m/s 756 mmHg 89%
    11:00 +28°C° 1,4 mm 2 m/s 756 mmHg 88%
    12:00 +28°C° 0,8 mm 2 m/s 755 mmHg 88%
    13:00 +28°C° 0,8 mm 2 m/s 755 mmHg 87%
    14:00 +29°C° 0,8 mm 2 m/s 754 mmHg 87%
    15:00 +29°C° 0,8 mm 2 m/s 754 mmHg 87%
    16:00 +29°C° 0,8 mm 2 m/s 753 mmHg 87%
    17:00 +29°C° 0,8 mm 1 m/s 753 mmHg 87%
    18:00 +28°C° 0,8 mm 1 m/s 753 mmHg 90%
    19:00 +27°C° 0,8 mm 1 m/s 754 mmHg 92%
    20:00 +26°C° 0,8 mm 1 m/s 754 mmHg 94%
    21:00 +26°C° 0,5 mm 1 m/s 754 mmHg 95%
    22:00 +26°C° 0,5 mm 1 m/s 755 mmHg 95%
    23:00 +26°C° 0,5 mm 1 m/s 755 mmHg 96%

    26 Mai, Sâmbătă

    Timp Temperatura Precipitaţii Vânt Presiune Umiditate
    00:00 +26°C° 0,9 mm 1 m/s 755 mmHg 96%
    01:00 +26°C° 0,9 mm 1 m/s 755 mmHg 96%
    02:00 +26°C° 0,9 mm 2 m/s 754 mmHg 96%
    03:00 +25°C° 1,2 mm 1 m/s 754 mmHg 96%
    04:00 +25°C° 1,2 mm 1 m/s 754 mmHg 96%
    05:00 +25°C° 1,2 mm 1 m/s 754 mmHg 96%
    06:00 +25°C° 0,5 mm 1 m/s 755 mmHg 96%
    07:00 +26°C° 0,5 mm 1 m/s 755 mmHg 95%
    08:00 +26°C° 0,5 mm 1 m/s 756 mmHg 94%
    09:00 +27°C° 0,6 mm 1 m/s 756 mmHg 91%
    10:00 +28°C° 0,6 mm 1 m/s 756 mmHg 87%
    11:00 +29°C° 0,6 mm 1 m/s 756 mmHg 84%
    12:00 +30°C° 1 mm 1 m/s 755 mmHg 80%
    13:00 +31°C° 1 mm 1 m/s 754 mmHg 76%
    14:00 +32°C° 1 mm 1 m/s 753 mmHg 73%
    15:00 +32°C° 0,5 mm 1 m/s 753 mmHg 74%
    16:00 +31°C° 0,5 mm 1 m/s 752 mmHg 76%
    17:00 +31°C° 0,5 mm 1 m/s 752 mmHg 77%
    18:00 +30°C° 0,9 mm 1 m/s 752 mmHg 82%
    19:00 +28°C° 0,9 mm 1 m/s 753 mmHg 86%
    20:00 +27°C° 0,9 mm 1 m/s 753 mmHg 91%
    21:00 +27°C° 0,4 mm 1 m/s 754 mmHg 91%
    22:00 +27°C° 0,4 mm 1 m/s 754 mmHg 92%
    23:00 +27°C° 0,4 mm 1 m/s 754 mmHg 92%

    27 Mai, Duminică

    Timp Temperatura Precipitaţii Vânt Presiune Umiditate
    00:00 +26°C° 1,3 mm 1 m/s 754 mmHg 93%
    01:00 +26°C° 1,3 mm 1 m/s 754 mmHg 94%
    02:00 +26°C° 1,3 mm 1 m/s 753 mmHg 94%
    03:00 +26°C° 1,9 mm 1 m/s 753 mmHg 94%
    04:00 +26°C° 1,9 mm 1 m/s 753 mmHg 93%
    05:00 +26°C° 1,9 mm 2 m/s 753 mmHg 92%
    06:00 +26°C° 0,5 mm 2 m/s 754 mmHg 91%
    07:00 +27°C° 0,5 mm 2 m/s 754 mmHg 90%
    08:00 +28°C° 0,5 mm 2 m/s 755 mmHg 89%
    09:00 +29°C° 0,5 mm 2 m/s 755 mmHg 85%
    10:00 +30°C° 0,5 mm 3 m/s 755 mmHg 80%
    11:00 +31°C° 0,5 mm 3 m/s 755 mmHg 76%
    12:00 +31°C° 1,8 mm 3 m/s 754 mmHg 76%
    13:00 +31°C° 1,8 mm 3 m/s 753 mmHg 76%
    14:00 +32°C° 1,8 mm 2 m/s 753 mmHg 77%
    15:00 +32°C° 1,8 mm 2 m/s 752 mmHg 78%
    16:00 +31°C° 1,8 mm 1 m/s 752 mmHg 79%
    17:00 +31°C° 1,8 mm 1 m/s 752 mmHg 80%
    18:00 +30°C° 1,3 mm 1 m/s 752 mmHg 82%
    19:00 +29°C° 1,3 mm 1 m/s 753 mmHg 85%
    20:00 +28°C° 1,3 mm 1 m/s 753 mmHg 88%
    21:00 +27°C° 0,3 mm 1 m/s 754 mmHg 89%
    22:00 +27°C° 0,3 mm 1 m/s 754 mmHg 90%
    23:00 +27°C° 0,3 mm 1 m/s 755 mmHg 91%

    28 Mai, Luni

    Timp Temperatura Precipitaţii Vânt Presiune Umiditate
    00:00 +26°C° 0,3 mm 1 m/s 754 mmHg 92%
    01:00 +26°C° 0,3 mm 1 m/s 754 mmHg 93%
    02:00 +26°C° 0,3 mm 1 m/s 754 mmHg 94%
    03:00 +25°C° 0,2 mm 1 m/s 754 mmHg 94%
    04:00 +25°C° 0,2 mm 1 m/s 754 mmHg 95%
    05:00 +25°C° 0,2 mm 1 m/s 754 mmHg 95%
    06:00 +26°C° 0,1 mm 1 m/s 755 mmHg 93%
    07:00 +26°C° 0,1 mm 2 m/s 755 mmHg 91%
    08:00 +27°C° 0,1 mm 2 m/s 756 mmHg 89%
    09:00 +28°C° 0 mm 2 m/s 756 mmHg 82%
    10:00 +30°C° 0 mm 3 m/s 756 mmHg 75%
    11:00 +31°C° 0 mm 3 m/s 756 mmHg 68%
    12:00 +33°C° 0 mm 3 m/s 755 mmHg 65%
    13:00 +34°C° 0 mm 2 m/s 754 mmHg 62%
    14:00 +35°C° 0 mm 2 m/s 753 mmHg 59%
    15:00 +34°C° 0,1 mm 2 m/s 753 mmHg 61%
    16:00 +33°C° 0,1 mm 1 m/s 752 mmHg 64%
    17:00 +33°C° 0,1 mm 1 m/s 752 mmHg 67%
    18:00 +32°C° 0,3 mm 1 m/s 752 mmHg 71%
    19:00 +30°C° 0,3 mm 1 m/s 753 mmHg 75%
    20:00 +28°C° 0,3 mm 1 m/s 753 mmHg 78%
    21:00 +28°C° 0 mm 1 m/s 754 mmHg 81%
    22:00 +27°C° 0 mm 1 m/s 754 mmHg 84%
    23:00 +27°C° 0 mm 1 m/s 755 mmHg 87%
    Arată mai mult